Hourly Data Report for October 04, 2014

All times are specified in Local Standard Time (LST). Add 1 hour to adjust for Daylight Saving Time where and when it is observed.

GRISE FIORD CLIMATE
NUNAVUT

76°25'22.040" N
82°54'08.020" W
44.50 m
2402351
71971
NGC

Download Data

Hourly Data (October 2014)
Hourly Data Report for October 4, 2014
Temp Definition
°C
Dew Point Temp Definition
°C
Rel Hum Definition
%
Wind Dir Definition
10's deg

Wind Spd Definition
km/h
Visibility Definition
km
Stn Press Definition
kPa
Hmdx Definition


Wind Chill Definition


Weather Definition


TIME
00:00 -8.3 -15.7 55 5 19   101.42   -16 LegendNANA
01:00 -7.5 -13.7 61 10 8   101.45   -12 LegendNANA
02:00 -9.1 -13.9 68 11 7   101.49   -13 LegendNANA
03:00 -8.6 -13.5 68 10 6   101.52   -12 LegendNANA
04:00 -7.7 -12.9 66 0 1   101.51   -8 LegendNANA
05:00 -8.9 -13.2 71 12 9   101.55   -14 LegendNANA
06:00 -8.1 -13.2 66 36 2   101.56   -9 LegendNANA
07:00 -9.1 -14.0 67 6 6   101.56   -12 LegendNANA
08:00 -8.3 -14.2 62 4 3   101.53   -10 LegendNANA
09:00 -8.1 -13.2 67 13 3   101.50   -10 LegendNANA
10:00 -7.7 -12.5 69 12 10   101.49   -13 LegendNANA
11:00 -6.5 -11.8 66 12 12   101.45   -12 LegendNANA
12:00 -5.9 -11.2 66 13 13   101.47   -11 LegendNANA
13:00 -5.3 -10.1 69 15 15   101.46   -11 LegendNANA
14:00 -5.1 -11.0 63 14 18   101.45   -11 LegendNANA
15:00 -4.7 -11.4 59 15 18   101.47   -11 LegendNANA
16:00 -5.2 -10.7 65 18 8   101.48   -9 LegendNANA
17:00 -5.6 -10.1 70 16 11   101.52   -10 LegendNANA
18:00 -6.1 -10.4 72 14 14   101.55   -12 LegendNANA
19:00 -5.8 -9.9 72 14 12   101.55   -11 LegendNANA
20:00 -6.1 -10.2 73 16 6   101.60   -9 LegendNANA
21:00 -6.9 -10.6 75 13 8   101.61   -11 LegendNANA
22:00 -6.7 -10.8 73 13 9   101.61   -11 LegendNANA
23:00 -6.4 -11.4 68 14 8   101.64   -10 LegendNANA

Notes on Data Quality.

Legend

  • E = Estimated
  • M = Missing
  • NA = Not Available
  • ‡ = Partner data that is not subject to review by the National Climate Archives
Date modified: